This demonstration page uses our WeatherBlox Daily Observations layout. Learn more.

Left ArrowRight Arrow

39.95238, -75.16362

Hourly Observations for October 4, 2022

Temp ( °F °C ) Dew Point ( °F °C ) Humidity (%) Winds ( mph kmh ) Pressure ( in mb ) Visibility ( mi km ) Precip ( " mm )
12:54 am 00:54 Cloudy with Light Rain 50 10 45 7.2 83 83 N 15 24 30.10 1019 10 16 0.01 0.13
1:09 am 01:09 Cloudy with Light Rain 50 10 45 7.2 83 83 N 15 24 30.10 1019 8 13 0.01 0.13
1:28 am 01:28 Cloudy with Light Rain 49 9.4 45 7.2 86 86 N 15 24 30.09 1019 5 8 0.01 0.25
1:54 am 01:54 Cloudy with Light Rain 49 9.4 45 7.2 86 86 N 17 28 30.08 1019 5 8 0.02 0.51
2:02 am 02:02 Cloudy with Rain 49 9.4 45 7.2 86 86 N 15 24 30.08 1019 4 6 0.01 0.25
2:18 am 02:18 Cloudy with Rain 48 8.9 45 7.2 89 89 N 16 26 30.08 1019 4 6 0.04 1.02
2:54 am 02:54 Cloudy with Light Rain 48 8.9 45 7.2 89 89 N 18 30 30.06 1018 4 6 0.09 2.29
3:54 am 03:54 Cloudy with Light Rain 48 8.9 44 6.7 86 86 N 16 26 30.04 1017 5 8 0.06 1.52
4:01 am 04:01 Cloudy with Light Rain 48 8.9 45 7.2 89 89 N 15 24 30.04 1017 8 13 0.01 0.13
4:33 am 04:33 Cloudy 48 8.9 45 7.2 89 89 N 16 26 30.03 1017 10 16 0.01 0.13
4:54 am 04:54 Cloudy 49 9.4 45 7.2 86 86 N 15 24 30.02 1017 10 16 0.01 0.13
5:54 am 05:54 Cloudy 49 9.4 44 6.7 83 83 N 18 30 30.01 1016 10 16 0.00 0.00
6:54 am 06:54 Cloudy 49 9.4 44 6.7 83 83 N 17 28 30.00 1016 10 16 0.00 0.00
7:31 am 07:31 Cloudy 49 9.4 45 7.2 86 86 N 16 26 30.00 1016 10 16 0.00 0.00
7:54 am 07:54 Cloudy with Light Rain 49 9.4 45 7.2 86 86 N 15 24 30.00 1016 10 16 0.01 0.13
8:24 am 08:24 Cloudy with Rain 49 9.4 45 7.2 86 86 N 15 24 30.00 1016 7 11 0.01 0.25
8:40 am 08:40 Cloudy with Light Rain 49 9.4 46 7.8 90 90 N 16 26 30.00 1016 4 6 0.04 1.02
8:48 am 08:48 Cloudy with Heavy Rain 48 9 46 8 93 93 NNE 15 24 30.00 1016 2 3 0.06 1.52
8:54 am 08:54 Cloudy with Heavy Rain 49 9.4 46 7.8 90 90 N 15 24 29.99 1016 1 2 0.13 3.30
9:08 am 09:08 Cloudy with Rain 49 9.4 46 7.8 90 90 NNE 18 30 29.99 1016 2 3 0.08 2.03
9:20 am 09:20 Cloudy with Heavy Rain 49 9.4 46 7.8 90 90 N 14 22 29.99 1016 1 2 0.11 2.79
9:54 am 09:54 Cloudy with Rain 49 9.4 46 7.8 90 90 N 15 24 29.99 1016 2 3 0.25 6.35
10:08 am 10:08 Cloudy with Light Rain 49 9.4 46 7.8 90 90 N 12 19 29.99 1016 7 11 0.01 0.25
10:27 am 10:27 Cloudy with Light Rain 49 9.4 46 7.8 90 90 N 13 20 29.99 1016 4 6 0.01 0.25
10:37 am 10:37 Cloudy with Heavy Rain 49 9.4 46 7.8 90 90 N 14 22 29.99 1016 2 3 0.05 1.27
10:54 am 10:54 Cloudy with Light Rain 49 9.4 46 7.8 90 90 N 14 22 29.98 1015 5 8 0.06 1.52
11:08 am 11:08 Cloudy 50 10 46 7.8 86 86 N 14 22 29.98 1015 8 13 0.01 0.13
11:54 am 11:54 Cloudy with Light Rain 50 10 47 8.3 89 89 N 13 20 29.96 1015 9 14 0.01 0.25
12:21 pm 12:21 Cloudy 51 10.6 47 8.3 86 86 N 13 20 29.96 1015 10 16 0.01 0.13
12:54 pm 12:54 Cloudy 51 10.6 48 8.9 89 89 N 15 24 29.95 1014 10 16 0.01 0.13
1:06 pm 13:06 Cloudy 51 10.6 48 8.9 89 89 N 15 24 29.94 1014 7 11 0.00 0.00
1:25 pm 13:25 Cloudy with Light Rain 52 11.1 49 9.4 89 89 N 14 22 29.94 1014 5 8 0.01 0.13
1:54 pm 13:54 Cloudy with Mist and Fog 52 11.1 49 9.4 89 89 N 15 24 29.93 1013 5 8 0.01 0.13
2:00 pm 14:00 Cloudy with Drizzle 51 10.6 48 8.9 89 89 N 15 24 29.92 1013 3 4 0.01 0.13
2:54 pm 14:54 Cloudy with Drizzle 52 11.1 49 9.4 89 89 N 12 19 29.91 1013 3 4 0.01 0.13
3:54 pm 15:54 Cloudy with Drizzle 52 11.1 50 10 93 93 N 15 24 29.90 1012 3 4 0.01 0.13
4:54 pm 16:54 Cloudy with Drizzle 53 11.7 50 10 89 89 N 15 24 29.89 1012 2 3 0.01 0.13
5:08 pm 17:08 Cloudy with Mist and Fog 53 11.7 50 10 89 89 N 15 24 29.90 1013 4 6 0.01 0.13
5:36 pm 17:36 Cloudy with Mist and Fog 53 11.7 50 10 89 89 N 15 24 29.89 1012 6 10 0.01 0.13
5:54 pm 17:54 Cloudy 53 11.7 50 10 89 89 N 16 26 29.89 1012 7 11 0.01 0.13
6:31 pm 18:31 Cloudy 53 11.7 50 10 89 89 N 14 22 29.90 1013 10 16 0.00 0.00
6:54 pm 18:54 Cloudy 53 11.7 50 10 89 89 N 15 24 29.90 1012 7 11 0.00 0.00
7:28 pm 19:28 Cloudy with Mist and Fog 53 11.7 50 10 89 89 N 16 26 29.91 1013 5 8 0.00 0.00
7:54 pm 19:54 Cloudy with Mist and Fog 53 11.7 50 10 89 89 N 16 26 29.91 1013 5 8 0.00 0.00
8:15 pm 20:15 Cloudy 53 11.7 50 10 89 89 N 17 28 29.91 1013 8 13 0.00 0.00
8:54 pm 20:54 Cloudy 54 12.2 51 10.6 90 90 N 14 22 29.90 1013 8 13 0.00 0.00
9:54 pm 21:54 Cloudy 54 12.2 50 10 86 86 N 14 22 29.90 1012 10 16 0.00 0.00
10:54 pm 22:54 Cloudy with Light Rain 54 12.2 51 10.6 90 90 N 15 24 29.89 1012 7 11 0.01 0.25
11:06 pm 23:06 Cloudy with Rain 54 12.2 51 10.6 90 90 N 15 24 29.89 1012 6 10 0.01 0.25
11:13 pm 23:13 Cloudy with Light Rain 54 12.2 51 10.6 90 90 N 13 20 29.89 1012 7 11 0.02 0.51
11:54 pm 23:54 Cloudy 54 12.2 51 10.6 90 90 N 12 19 29.88 1012 10 16 0.02 0.51

Powered by AerisWeather